Weather reports worldwide

Advertisment
Reading University Whiteknights, United Kingdom (99183): temperature & dewpoint: 16.02.2020 07:00:00 - 22.02.2020 07:00:00 (GMT)Reading University Whiteknights, United Kingdom (99183): temperature -20cm & temperature -100cm: 16.02.2020 07:00:00 - 22.02.2020 07:00:00 (GMT)Reading University Whiteknights, United Kingdom (99183): sunshine duration: 16.02.2020 07:00:00 - 22.02.2020 07:00:00 (GMT)Reading University Whiteknights, United Kingdom (99183): precipitation: 16.02.2020 07:00:00 - 22.02.2020 07:00:00 (GMT)
Date & Time tt [°C] td [°C] tt -20cm [°C] tt -100cm [°C] sd [min] rr [mm]
22.02.2020 07:00:00 - - - - - -
22.02.2020 06:00:00 9,7 7,1 - - 0 0,0
22.02.2020 05:00:00 10,0 6,3 - - 0 0,0
22.02.2020 04:00:00 9,5 5,4 - - 0 0,0
22.02.2020 03:00:00 9,1 5,0 - - 0 0,0
22.02.2020 02:00:00 9,3 5,1 - - 0 0,0
22.02.2020 01:00:00 9,3 4,9 - - 0 0,0
22.02.2020 00:00:00 9,0 4,8 - - - 0,0
21.02.2020 23:00:00 9,6 4,9 - - 0 0,0
21.02.2020 22:00:00 9,5 4,7 - - 0 0,0
21.02.2020 21:00:00 9,5 5,0 - - 0 0,0
21.02.2020 20:00:00 9,0 5,2 - - 0 0,0
21.02.2020 19:00:00 9,2 5,3 - - 0 0,0
21.02.2020 18:00:00 9,2 5,2 - - 0 0,0
21.02.2020 17:00:00 10,0 5,0 - - 0 0,0
21.02.2020 16:00:00 10,0 4,9 - - 0 0,0
21.02.2020 15:00:00 10,1 4,2 - - 0 0,0
21.02.2020 14:00:00 10,2 3,9 - - 0 0,0
21.02.2020 13:00:00 9,9 4,2 - - 0 0,0
21.02.2020 12:00:00 8,9 3,3 - - 0 0,0
21.02.2020 11:00:00 8,2 3,4 - - 0 0,0
21.02.2020 10:00:00 7,4 3,4 - - 0 0,0
21.02.2020 09:00:00 6,3 3,1 6,7 7,7 0 0,0
21.02.2020 08:00:00 4,7 2,3 - - 0 0,0
21.02.2020 07:00:00 3,8 1,6 - - 0 0,0
21.02.2020 06:00:00 3,3 1,2 - - 0 0,0
21.02.2020 05:00:00 3,8 1,3 - - 0 0,0
21.02.2020 04:00:00 3,7 0,9 - - 0 0,0
21.02.2020 03:00:00 2,9 0,3 - - 0 0,0
21.02.2020 02:00:00 2,8 0,2 - - 0 0,0
21.02.2020 01:00:00 2,6 -0,3 - - 0 0,0
21.02.2020 00:00:00 3,1 -0,2 - - - 0,0
20.02.2020 23:00:00 3,7 -0,3 - - 0 0,0
20.02.2020 22:00:00 4,0 -0,2 - - 0 0,0
20.02.2020 21:00:00 3,5 -0,9 - - 0 0,0
20.02.2020 20:00:00 4,1 -0,3 - - 0 0,0
20.02.2020 19:00:00 5,2 -0,7 - - 0 0,0
20.02.2020 18:00:00 5,4 0,5 - - 6 0,0
20.02.2020 17:00:00 6,5 0,4 - - 36 0,0
20.02.2020 16:00:00 5,7 1,5 - - 6 0,0
20.02.2020 15:00:00 6,2 3,2 - - 0 0,0
20.02.2020 14:00:00 5,6 3,3 - - 0 1,0
20.02.2020 13:00:00 7,9 6,7 - - 0 3,2
20.02.2020 12:00:00 9,8 8,5 - - 0 0,0
20.02.2020 11:00:00 9,5 8,3 - - 0 0,2
20.02.2020 10:00:00 9,5 7,8 - - 0 0,0
20.02.2020 09:00:00 9,4 7,5 7,0 7,7 0 0,0
20.02.2020 08:00:00 9,1 7,3 - - 0 0,0
20.02.2020 07:00:00 8,5 7,2 - - 0 0,2
20.02.2020 06:00:00 8,5 7,1 - - 0 0,0
20.02.2020 05:00:00 8,3 7,0 - - 0 0,0
20.02.2020 04:00:00 9,1 6,4 - - 0 0,0
20.02.2020 03:00:00 9,1 6,5 - - 0 0,0
20.02.2020 02:00:00 8,9 6,7 - - 0 0,0
20.02.2020 01:00:00 8,6 7,1 - - 0 0,0
20.02.2020 00:00:00 9,1 6,7 - - - 0,0
19.02.2020 23:00:00 8,9 6,4 - - 0 0,0
19.02.2020 22:00:00 8,7 6,5 - - 0 0,0
19.02.2020 21:00:00 8,6 6,5 - - 0 0,0
19.02.2020 20:00:00 8,7 7,2 - - 0 0,0
19.02.2020 19:00:00 8,5 7,3 - - 0 1,0
19.02.2020 18:00:00 8,9 6,8 - - 0 0,0
19.02.2020 17:00:00 8,7 6,9 - - 0 0,0
19.02.2020 16:00:00 8,7 7,0 - - 0 0,0
19.02.2020 15:00:00 8,0 6,5 - - 0 0,2
19.02.2020 14:00:00 7,2 6,0 - - 0 0,0
19.02.2020 13:00:00 6,0 4,7 - - 0 0,8
19.02.2020 12:00:00 5,9 3,6 - - 0 0,2
19.02.2020 11:00:00 5,9 2,4 - - 0 0,0
19.02.2020 10:00:00 5,6 2,2 - - 0 0,0
19.02.2020 09:00:00 4,4 1,3 6,7 7,9 0 0,0
19.02.2020 08:00:00 3,4 0,5 - - 0 0,0
19.02.2020 07:00:00 3,2 0,3 - - 0 0,0
19.02.2020 06:00:00 2,9 -0,2 - - 0 0,0
19.02.2020 05:00:00 3,4 -0,1 - - 0 -
19.02.2020 04:00:00 3,6 0,0 - - 0 0,0
19.02.2020 03:00:00 3,8 0,1 - - 0 0,0
19.02.2020 02:00:00 4,3 0,4 - - 0 0,0
19.02.2020 01:00:00 4,5 1,1 - - 0 0,0
19.02.2020 00:00:00 5,0 1,2 - - - 0,0
18.02.2020 23:00:00 5,5 1,6 - - 0 0,0
18.02.2020 22:00:00 4,9 2,8 - - 0 0,4
18.02.2020 21:00:00 6,1 2,0 - - 0 0,0
18.02.2020 20:00:00 6,9 3,0 - - 0 0,0
18.02.2020 19:00:00 7,1 2,9 - - 0 0,0
18.02.2020 18:00:00 8,7 4,3 - - 0 0,0
18.02.2020 17:00:00 8,6 4,7 - - 0 0,0
18.02.2020 16:00:00 8,1 4,9 - - 0 0,0
18.02.2020 15:00:00 6,9 4,6 - - 0 1,2
18.02.2020 14:00:00 10,2 4,1 - - 24 0,0
18.02.2020 13:00:00 10,1 3,9 - - 12 0,0
18.02.2020 12:00:00 8,9 3,4 - - 18 0,0
18.02.2020 11:00:00 8,1 3,2 - - 48 0,0
18.02.2020 10:00:00 6,5 2,7 - - 12 -
18.02.2020 09:00:00 5,5 2,4 7,0 7,9 18 0,0
18.02.2020 08:00:00 3,9 1,8 - - 0 -
18.02.2020 07:00:00 3,7 1,5 - - 0 0,0
18.02.2020 06:00:00 4,1 1,5 - - 0 -
18.02.2020 05:00:00 4,0 1,5 - - 0 -
18.02.2020 04:00:00 4,2 1,4 - - 0 0,0
18.02.2020 03:00:00 4,3 1,4 - - 0 -
18.02.2020 02:00:00 4,2 1,1 - - 0 -
18.02.2020 01:00:00 4,5 1,6 - - 0 0,0
18.02.2020 00:00:00 4,4 1,7 - - - -
17.02.2020 23:00:00 4,6 1,4 - - 0 0,0
17.02.2020 22:00:00 4,9 1,1 - - 0 -
17.02.2020 21:00:00 5,8 1,2 - - 0 0,0
17.02.2020 20:00:00 6,8 2,1 - - 0 0,0
17.02.2020 19:00:00 7,3 2,9 - - 0 0,0
17.02.2020 18:00:00 8,0 2,7 - - 0 0,0
17.02.2020 17:00:00 8,9 2,7 - - 0 0,0
17.02.2020 16:00:00 9,3 3,0 - - 6 0,0
17.02.2020 15:00:00 10,2 2,8 - - 36 0,0
17.02.2020 14:00:00 9,2 4,9 - - 12 0,0
17.02.2020 13:00:00 9,9 4,3 - - 6 0,0
17.02.2020 12:00:00 9,8 3,6 - - 24 0,0
17.02.2020 11:00:00 8,4 3,1 - - 36 0,0
17.02.2020 10:00:00 7,8 3,0 - - 60 0,0
17.02.2020 09:00:00 6,0 1,5 7,4 7,9 30 0,0
17.02.2020 08:00:00 5,2 1,0 - - 0 0,0
17.02.2020 07:00:00 5,4 1,8 - - 0 0,4
17.02.2020 06:00:00 6,8 2,6 - - 0 0,0
17.02.2020 05:00:00 7,0 1,8 - - 0 0,0
17.02.2020 04:00:00 6,7 1,5 - - 0 0,0
17.02.2020 03:00:00 6,3 1,1 - - 0 0,0
17.02.2020 02:00:00 5,5 0,9 - - 0 0,0
17.02.2020 01:00:00 5,3 0,8 - - 0 0,0
17.02.2020 00:00:00 4,9 1,1 - - - 0,0
16.02.2020 23:00:00 4,9 1,0 - - 0 0,0
16.02.2020 22:00:00 5,8 1,0 - - 0 0,0
16.02.2020 21:00:00 5,9 1,6 - - 0 0,4
16.02.2020 20:00:00 7,0 2,7 - - 0 0,0
16.02.2020 19:00:00 7,2 3,8 - - 0 0,0
16.02.2020 18:00:00 7,2 4,7 - - 0 0,0
16.02.2020 17:00:00 7,6 4,4 - - 0 0,0
16.02.2020 16:00:00 7,3 4,5 - - 6 0,0
16.02.2020 15:00:00 6,7 5,1 - - 0 0,6
16.02.2020 14:00:00 6,8 4,9 - - 0 2,4
16.02.2020 13:00:00 8,1 6,5 - - 0 2,0
16.02.2020 12:00:00 8,7 7,0 - - 0 1,2
16.02.2020 11:00:00 9,4 7,7 - - 0 1,2
16.02.2020 10:00:00 10,3 8,4 - - 0 0,2
16.02.2020 09:00:00 10,2 8,5 7,7 7,7 0 0,2
16.02.2020 08:00:00 9,5 8,4 - - 0 3,8
16.02.2020 07:00:00 12,6 11,7 - - 0 2,4

tt = temperature
td = dewpoint
tt -20cm = temperature -20cm
tt -100cm = temperature -100cm
sd = sunshine duration
rr = precipitation

Next stations